Location: Central Coast
(33.3208°S, 151.2336°E)
Time: 05:36:11
(UTC+11:00)

Vanguard 2 - All Passes

Search period start: 21 January 2018 00:00
Search period end: 31 January 2018 00:00
Orbit: 553 x 2940 km, 32.9° (Epoch: 20 January)

Date Brightness Start Highest point End Pass type
(mag) Time Alt. Az. Time Alt. Az. Time Alt. Az.
21 Jan - 12:36:48 10° NNW 12:48:35 24° NNE 12:57:46 10° E daylight
21 Jan - 14:45:37 10° NW 14:59:38 51° NNE 15:08:23 10° E daylight
21 Jan - 16:58:12 10° WNW 17:09:49 81° N 17:16:31 10° E daylight
21 Jan - 19:11:01 10° W 19:19:05 81° N 19:24:05 10° ENE daylight
21 Jan - 21:22:28 10° W 21:27:04 28° NNW 21:30:41 10° NNE visible
22 Jan - 12:53:10 10° NNW 13:06:50 32° NNE 13:16:55 10° E daylight
22 Jan - 15:03:28 10° NW 15:17:51 61° NNE 15:26:36 10° E daylight
22 Jan - 17:16:39 10° W 17:28:02 87° N 17:34:35 10° E daylight
22 Jan - 19:29:24 10° W 19:37:10 70° NNW 19:42:02 10° ENE daylight
22 Jan - 21:41:16 10° W 21:44:49 19° NW 21:47:49 10° N visible
23 Jan - 11:04:50 10° N 11:13:37 16° NE 11:21:30 10° ENE daylight
23 Jan - 13:10:05 10° NNW 13:25:03 41° NNE 13:35:37 10° E daylight
23 Jan - 15:21:35 10° WNW 15:36:05 71° NNE 15:44:44 10° E daylight
23 Jan - 17:35:09 10° W 17:46:15 88° N 17:52:39 10° E daylight
23 Jan - 19:47:48 10° W 19:55:10 56° NNW 19:59:54 10° NE daylight
23 Jan - 22:01:07 10° WNW 22:02:29 11° NW 22:03:47 10° NNW visible
24 Jan - 11:19:44 10° N 11:31:48 23° NE 11:42:05 10° E daylight
24 Jan - 13:27:27 10° NW 13:43:16 50° NNE 13:54:04 10° E daylight
24 Jan - 15:39:54 10° WNW 15:54:20 79° NNE 16:02:49 10° E daylight
24 Jan - 17:53:39 10° W 18:04:27 86° N 18:10:42 10° E daylight
24 Jan - 20:06:15 10° W 20:13:04 41° NNW 20:17:36 10° NE daylight
25 Jan - 11:35:48 10° NNW 11:49:56 30° NE 12:01:34 10° E daylight
25 Jan - 13:45:09 10° NW 14:01:30 60° NNE 14:12:22 10° E daylight
25 Jan - 15:58:21 10° W 16:12:35 85° N 16:20:55 10° E daylight
25 Jan - 18:12:09 10° W 18:22:37 79° NNW 18:28:42 10° ENE daylight
25 Jan - 20:24:50 10° W 20:30:49 29° NW 20:35:01 10° NNE visible
26 Jan - 09:49:41 10° NNE 09:56:42 13° NE 10:03:28 10° ENE daylight
26 Jan - 11:52:29 10° NNW 12:08:05 39° NNE 12:20:29 10° E daylight
26 Jan - 14:03:07 10° WNW 14:19:45 69° NNE 14:30:33 10° E daylight
26 Jan - 16:16:53 10° W 16:30:52 88° N 16:39:01 10° E daylight
26 Jan - 18:30:37 10° W 18:40:43 68° NNW 18:46:38 10° ENE daylight
26 Jan - 20:43:46 10° W 20:48:27 20° NW 20:52:02 10° N visible
27 Jan - 10:03:37 10° N 10:14:43 20° NE 10:25:12 10° E daylight
27 Jan - 12:09:39 10° NW 12:26:13 48° NNE 12:39:04 10° E daylight
27 Jan - 14:21:20 10° WNW 14:38:02 77° NNE 14:48:42 10° E daylight
27 Jan - 16:35:27 10° W 16:49:10 88° N 16:57:05 10° E daylight
27 Jan - 18:49:05 10° W 18:58:41 55° NNW 19:04:26 10° NE daylight
27 Jan - 21:03:38 10° WNW 21:05:58 12° NW 21:08:01 10° NNW visible
28 Jan - 10:19:14 10° N 10:32:43 27° NE 10:45:11 10° E daylight
28 Jan - 12:27:09 10° NW 12:44:24 57° NNE 12:57:28 10° E daylight
28 Jan - 14:39:43 10° WNW 14:56:21 83° N 15:06:51 10° E daylight
28 Jan - 16:54:01 10° W 17:07:25 84° N 17:15:09 10° ENE daylight
28 Jan - 19:07:38 10° W 19:16:32 42° NNW 19:22:04 10° NE daylight
29 Jan - 10:35:39 10° NNW 10:50:42 36° NE 11:04:25 10° E daylight
29 Jan - 12:44:58 10° NW 13:02:39 66° NNE 13:15:46 10° E daylight
29 Jan - 14:58:12 10° W 15:14:42 87° N 15:24:59 10° E daylight
29 Jan - 17:12:33 10° W 17:25:37 77° NNW 17:33:09 10° ENE daylight
29 Jan - 19:26:20 10° W 19:34:13 31° NW 19:39:25 10° NNE daylight
30 Jan - 08:48:52 10° NNE 08:57:39 16° NE 09:06:38 10° ENE daylight
30 Jan - 10:52:34 10° NNW 11:08:42 44° NNE 11:23:13 10° E daylight
30 Jan - 13:03:02 10° WNW 13:20:56 74° NNE 13:33:58 10° E daylight
30 Jan - 15:16:47 10° W 15:33:04 89° N 15:43:07 10° E daylight
30 Jan - 17:31:05 10° W 17:43:43 67° NNW 17:51:03 10° ENE daylight
30 Jan - 19:45:21 10° W 19:51:45 22° NW 19:56:21 10° N daylight
